Flag for Colombia Weather past 2 weeks in Barranquilla, Colombia

Now
82 °F

Partly sunny.


Feels Like: 89 °F
Forecast: 77 / 84 °F
Wind: 9 mph from North

Location: Barranquilla / Ernestocortissoz

Current Time: May 28, 2015 at 7:24:18 PM

Latest Report: May 28, 2015 at 6:00 PM


Visibility: N/A

Pressure: 29.85 "Hg

Humidity: 79%

Dew point: 75 °F

Location of BarranquillaLocation

Historic Weather in Barranquilla — Graph

°F

Barranquilla temperature yesterday

Maximum temperature yesterday: 91 °F (at 11:00 AM)
Minimum temperature yesterday: 79 °F (at 6:00 AM)
Average temperature yesterday: 83 °F

Past Weeks' High & Low Weather Summary

 TemperatureHumidityPressure
High95 °F (May 20, 12:00 PM)100% (May 14, 11:00 AM)30.13 "Hg (May 14, 11:00 AM)
Low73 °F (May 14, 12:00 PM)44% (May 14, 12:00 PM)29.69 "Hg (May 13, 5:00 PM)
Average83 °F82%29.84 "Hg
* Reported May 13 5:00 PM — May 28 5:00 PM, Barranquilla, Weather by CustomWeather, © 2015

Note: Actual official high and low records may vary slightly from our data, if they occured in-between our weather recording intervals... More about our weather records

Advertising

Barranquilla weather history for previous 24 hours

 ConditionsComfort  
Time TempWeatherWind HumidityBarometerVisibility
5:00 PM
Thu, May 28
82 °FBroken clouds.6 mph79%29.84 "HgN/A
4:00 PM82 °FPartly sunny.9 mph79%29.84 "HgN/A
3:00 PM84 °FBroken clouds.12 mph79%29.84 "HgN/A
2:00 PM84 °FScattered clouds.7 mph74%29.85 "HgN/A
1:00 PM84 °FBroken clouds.8 mph79%29.87 "HgN/A
12:00 PM84 °FMostly cloudy.6 mph79%29.88 "HgN/A
11:00 AM82 °FMostly cloudy.6 mph84%29.89 "HgN/A
10:00 AM84 °FBroken clouds.3 mph74%29.90 "Hg5 mi
9:00 AM82 °FBroken clouds.5 mph84%29.89 "Hg4 mi
8:00 AM81 °FFog.N/A89%29.88 "Hg4 mi
7:00 AM77 °FFog.3 mph94%29.87 "Hg2 mi
6:00 AM77 °FPartly sunny.3 mph94%29.85 "HgN/A
5:00 AM77 °FPassing clouds.No wind94%29.83 "HgN/A
4:00 AM79 °FPassing clouds.5 mph94%29.83 "HgN/A
3:00 AM79 °FPassing clouds.5 mph89%29.82 "HgN/A
2:00 AM79 °FPassing clouds.6 mph89%29.82 "HgN/A
1:00 AM81 °FPassing clouds.6 mph89%29.83 "HgN/A
11:52 PM
Wed, May 27
81 °FPassing clouds.6 mph89%29.83 "HgN/A
11:00 PM81 °FPassing clouds.7 mph84%29.83 "HgN/A
10:00 PM81 °FPassing clouds.5 mph89%29.84 "HgN/A
9:00 PM81 °FPassing clouds.9 mph89%29.83 "HgN/A
8:00 PM81 °FPassing clouds.9 mph89%29.83 "HgN/A
7:00 PM81 °FPassing clouds.18 mph89%29.78 "HgN/A
Weather by CustomWeather, © 2015

See weather overviewHow to use our weather pages